Terug naar catalogus

STARLINK-30258

ActiefCommunicatieVLEO
NORAD 57608·PAYLOAD·🇺🇸 United States

Gelanceerd Aug 11, 2023 vanaf Cape Canaveral Space Force Station

Loading…

Volgende Passages (komende 24 uur)

TLE

VersSource: CelesTrak SupGP

Epoch: Sep 15, 2026, 02:58 UTC

1 57608C 23119G   26258.12409722  .00002748  00000+0  99498-4 0  2583
2 57608  43.0027  92.1638 0001531 273.9443  65.4577 15.27586676    13

Volg STARLINK-30258 in realtime met AllMySat

Download on the App Store